Time,TemperatureF,DewpointF,PressureIn,WindDirection,WindDirectionDegrees,WindSpeedMPH,WindSpeedGustMPH,Humidity,HourlyPrecipIn,Conditions,Clouds,dailyrainin,SoftwareType,DateUTC
2013-08-12 00:42:00,75.0,-99.9,-100.00,North,349,1.0,4.0,-999,-99.99,,,-99.99,,2013-08-12 06:42:00,
2013-08-12 00:52:00,76.0,-99.9,-100.00,NE,40,2.0,3.0,-999,-99.99,,,-99.99,,2013-08-12 06:52:00,
2013-08-12 01:01:00,76.0,-99.9,-100.00,NE,40,2.0,3.0,-999,-99.99,,,-99.99,,2013-08-12 07:01:00,
2013-08-12 01:12:00,76.0,-99.9,-100.00,NE,40,2.0,3.0,-999,-99.99,,,-99.99,,2013-08-12 07:12:00,
2013-08-12 01:30:00,76.0,-99.9,-100.00,NE,44,1.0,3.0,-999,-99.99,,,-99.99,,2013-08-12 07:30:00,
2013-08-12 02:02:00,76.0,-99.9,-100.00,NE,44,1.0,3.0,-999,-99.99,,,-99.99,,2013-08-12 08:02:00,
2013-08-12 02:12:00,76.0,-99.9,-100.00,NE,44,1.0,3.0,-999,-99.99,,,-99.99,,2013-08-12 08:12:00,
2013-08-12 02:22:00,76.0,-99.9,-100.00,NE,44,1.0,3.0,-999,-99.99,,,-99.99,,2013-08-12 08:22:00,
2013-08-12 03:32:00,76.0,-99.9,-100.00,East,80,2.0,2.0,-999,-99.99,,,-99.99,,2013-08-12 09:32:00,
2013-08-12 03:43:00,76.0,-99.9,-100.00,East,80,2.0,2.0,-999,-99.99,,,-99.99,,2013-08-12 09:43:00,
2013-08-12 03:53:00,76.0,-99.9,-100.00,East,79,1.0,4.0,-999,-99.99,,,-99.99,,2013-08-12 09:53:00,
2013-08-12 04:02:00,76.0,-99.9,-100.00,East,79,1.0,4.0,-999,-99.99,,,-99.99,,2013-08-12 10:02:00,
2013-08-12 04:22:00,74.0,-99.9,-100.00,ENE,59,1.0,2.0,-999,-99.99,,,-99.99,,2013-08-12 10:22:00,
2013-08-12 04:32:00,74.0,-99.9,-100.00,ENE,59,1.0,2.0,-999,-99.99,,,-99.99,,2013-08-12 10:32:00,
2013-08-12 04:50:00,72.0,-99.9,-100.00,NNE,24,1.0,2.0,-999,-99.99,,,-99.99,,2013-08-12 10:50:00,
2013-08-12 05:22:00,72.0,-99.9,-100.00,ENE,62,2.0,2.0,-999,-99.99,,,-99.99,,2013-08-12 11:22:00,
2013-08-12 05:32:00,72.0,-99.9,-100.00,NNE,24,1.0,2.0,-999,-99.99,,,-99.99,,2013-08-12 11:32:00,
2013-08-12 05:40:00,72.0,-99.9,-100.00,NNE,32,1.0,2.0,-999,-99.99,,,-99.99,,2013-08-12 11:40:00,
2013-08-12 05:43:00,72.0,-99.9,-100.00,NNE,24,1.0,2.0,-999,-99.99,,,-99.99,,2013-08-12 11:43:00,
2013-08-12 06:22:00,72.0,-99.9,-100.00,NNE,32,1.0,2.0,-999,-99.99,,,-99.99,,2013-08-12 12:22:00,
2013-08-12 06:32:00,72.0,-99.9,-100.00,NNE,32,1.0,2.0,-999,-99.99,,,-99.99,,2013-08-12 12:32:00,
2013-08-12 07:53:00,72.0,-99.9,-100.00,ENE,78,2.0,3.0,-999,-99.99,,,-99.99,,2013-08-12 13:53:00,
2013-08-12 08:02:00,72.0,-99.9,-100.00,ENE,78,2.0,3.0,-999,-99.99,,,-99.99,,2013-08-12 14:02:00,
2013-08-12 09:20:00,78.0,-99.9,-100.00,NE,47,4.0,4.0,-999,-99.99,,,-99.99,,2013-08-12 15:20:00,
2013-08-12 10:11:00,78.0,-99.9,-100.00,NE,47,4.0,4.0,-999,-99.99,,,-99.99,,2013-08-12 16:11:00,
2013-08-12 10:43:00,80.0,-99.9,-100.00,NE,35,1.0,4.0,-999,-99.99,,,-99.99,,2013-08-12 16:43:00,
2013-08-12 10:53:00,80.0,-99.9,-100.00,NE,35,1.0,4.0,-999,-99.99,,,-99.99,,2013-08-12 16:53:00,
2013-08-12 11:00:00,83.0,-99.9,-100.00,ENE,69,3.0,5.0,-999,-99.99,,,-99.99,,2013-08-12 17:00:00,
2013-08-12 11:32:00,83.0,-99.9,-100.00,ENE,69,3.0,5.0,-999,-99.99,,,-99.99,,2013-08-12 17:32:00,
2013-08-12 11:43:00,83.0,-99.9,-100.00,ENE,69,3.0,5.0,-999,-99.99,,,-99.99,,2013-08-12 17:43:00,
2013-08-12 11:50:00,83.0,-99.9,-100.00,East,79,3.0,3.0,-999,-99.99,,,-99.99,,2013-08-12 17:50:00,
2013-08-12 11:52:00,83.0,-99.9,-100.00,ENE,69,3.0,5.0,-999,-99.99,,,-99.99,,2013-08-12 17:52:00,
2013-08-12 12:24:00,85.0,-99.9,-100.00,SSE,156,0.0,3.0,-999,-99.99,,,-99.99,,2013-08-12 18:24:00,
2013-08-12 12:32:00,83.0,-99.9,-100.00,East,79,3.0,3.0,-999,-99.99,,,-99.99,,2013-08-12 18:32:00,
2013-08-12 12:43:00,83.0,-99.9,-100.00,East,79,3.0,3.0,-999,-99.99,,,-99.99,,2013-08-12 18:43:00,
2013-08-12 13:02:00,85.0,-99.9,-100.00,North,359,3.0,3.0,-999,-99.99,,,-99.99,,2013-08-12 19:02:00,
2013-08-12 13:11:00,85.0,-99.9,-100.00,North,359,3.0,3.0,-999,-99.99,,,-99.99,,2013-08-12 19:11:00,
2013-08-12 13:20:00,87.0,-99.9,-100.00,East,95,1.0,3.0,-999,-99.99,,,-99.99,,2013-08-12 19:20:00,
2013-08-12 13:22:00,85.0,-99.9,-100.00,North,359,3.0,3.0,-999,-99.99,,,-99.99,,2013-08-12 19:22:00,
2013-08-12 14:11:00,87.0,-99.9,-100.00,East,95,1.0,3.0,-999,-99.99,,,-99.99,,2013-08-12 20:11:00,
2013-08-12 14:32:00,86.0,-99.9,-100.00,North,359,2.0,3.0,-999,-99.99,,,-99.99,,2013-08-12 20:32:00,
2013-08-12 14:42:00,86.0,-99.9,-100.00,North,359,2.0,3.0,-999,-99.99,,,-99.99,,2013-08-12 20:42:00,
2013-08-12 17:22:00,91.0,-99.9,-100.00,NE,47,1.0,3.0,-999,-99.99,,,-99.99,,2013-08-12 23:22:00,
2013-08-12 17:30:00,89.0,-99.9,-100.00,NNW,339,3.0,4.0,-999,-99.99,,,-99.99,,2013-08-12 23:30:00,
2013-08-12 17:34:00,91.0,-99.9,-100.00,NE,47,1.0,3.0,-999,-99.99,,,-99.99,,2013-08-12 23:34:00,
2013-08-12 18:13:00,88.0,-99.9,-100.00,NNE,16,2.0,3.0,-999,-99.99,,,-99.99,,2013-08-13 00:13:00,
2013-08-12 18:24:00,89.0,-99.9,-100.00,NNW,339,3.0,4.0,-999,-99.99,,,-99.99,,2013-08-13 00:24:00,
2013-08-12 18:54:00,90.0,-99.9,-100.00,NE,42,1.0,3.0,-999,-99.99,,,-99.99,,2013-08-13 00:54:00,
2013-08-12 19:13:00,88.0,-99.9,-100.00,NNW,346,2.0,3.0,-999,-99.99,,,-99.99,,2013-08-13 01:13:00,
2013-08-12 19:24:00,88.0,-99.9,-100.00,NNW,346,2.0,3.0,-999,-99.99,,,-99.99,,2013-08-13 01:24:00,
2013-08-12 20:11:00,87.0,-99.9,-100.00,WNW,291,2.0,3.0,-999,-99.99,,,-99.99,,2013-08-13 02:11:00,
2013-08-12 20:22:00,86.0,-99.9,-100.00,NW,310,2.0,3.0,-999,-99.99,,,-99.99,,2013-08-13 02:22:00,
2013-08-12 20:32:00,86.0,-99.9,-100.00,NW,310,2.0,3.0,-999,-99.99,,,-99.99,,2013-08-13 02:32:00,
2013-08-12 21:10:00,83.0,-99.9,-100.00,NNW,343,1.0,2.0,-999,-99.99,,,-99.99,,2013-08-13 03:10:00,
2013-08-12 21:54:00,83.0,-99.9,-100.00,NNW,343,1.0,2.0,-999,-99.99,,,-99.99,,2013-08-13 03:54:00,
2013-08-12 22:03:00,83.0,-99.9,-100.00,NNW,343,1.0,2.0,-999,-99.99,,,-99.99,,2013-08-13 04:03:00,
2013-08-12 23:43:00,78.0,-99.9,-100.00,NNW,328,3.0,6.0,-999,-99.99,,,-99.99,,2013-08-13 05:43:00,
2013-08-12 23:52:00,78.0,-99.9,-100.00,NNW,328,3.0,6.0,-999,-99.99,,,-99.99,,2013-08-13 05:52:00,